Location: Betra
(48.4113°N, 8.6634°E)
Time: 21:02:27
(UTC+00:00)

Geosat - Pass Details

Date: 23 May 2024
Orbit: 760 x 763 km, 108.1° (Epoch: 24 June)

Event Time Altitude Azimuth Distance (km) Brightness Sun altitude
Rises 02:24:12 0° 147° (SSE) 3,211 7.1 -9.9°
Reaches altitude 10° 02:26:28 10° 146° (SSE) 2,290 6.3 -9.6°
Maximum altitude 02:31:27 84° 61° (ENE) 773 4.1 -9.0°
Drops below altitude 10° 02:36:30 10° 332° (NNW) 2,307 6.7 -8.5°
Sets 02:38:47 0° 332° (NNW) 3,238 7.5 -8.2°
